COSMOS 2406

Satellite information

Favourite Embed

Satellite Type and Status

PAYLOADIN ORBIT

Key statistics

Satellite COSMOS 2406 at a glance.

Uptime

7697

Days in orbit

Revolutions

≈ 14.1

Per day

Orbit

LEO

Low Earth Orbit

Inclination

71.0

Latest

Satellite identification and parameters

Extended collection of information and parameters for COSMOS 2406.

Object identification

Identified? True

Debris? False

Object name: COSMOS 2406

International designator: 2004-021A

Object number (NORAD): 28352

Object ID (CCSDS): 28352

Country: COMMONWEALTH OF INDEPENDENT STATES (CIS)

Current information (Y/N): Y

RCS size: LARGE

Orbital parameters

Period: 101.975 minutes

Inclination: 71.0038 deg

SMA: 7230.307 km

Apoapsis: 859.867 km

Periapsis: 844.476 km

RAAN: 102.4091 deg

Eccentricy: 0.0010643

Argument of periapsis: 281.3351 deg

Mean anomaly: 78.6574 deg

Mean motion: 14.12107255 rev/day

Mean motion (dot): 0.00000361 rev/day2

B* drag term: 0.00022235 1/REarth

Two-line elements (TLE)

Creation date: July 6, 2025, 6:05 p.m.

Reference frame: TEME

Reference center: EARTH

Epoch: July 6, 2025, 5:27 a.m. UTC

TLE line 0: 0 COSMOS 2406

TLE line 1: 1 28352U 04021A 25187.22768838 .00000361 00000-0 22235-3 0 9991

TLE line 2: 2 28352 71.0038 102.4091 0010643 281.3351 78.6574 14.12107255 85878

Live tracking on map

Real-time ground track for satellite COSMOS 2406.

In-orbit conjunctions

A list of the most updated potential collisions computed for object COSMOS 2406.

Target Orbit TCA Probability of collision Miss distance Type
FENGYUN 1C DEB SSO 2025-05-04 10:42:42 0.000540973 258.0 (m) DEBRIS
FENGYUN 1C DEB SSO 2025-04-04 19:08:38 0.0008256354 76.0 (m) DEBRIS
FENGYUN 1C DEB SSO 2025-01-18 13:05:29 0.0002874291 561.0 (m) DEBRIS
FENGYUN 1C DEB SSO 2024-11-02 11:05:36 0.0001532608 392.0 (m) DEBRIS
NOAA 17 DEB SSO 2024-09-06 22:33:26 0.0002218045 680.0 (m) DEBRIS

Associated space launch

Second generation ELING satellite

COSMOS 2406 was lifted into orbit during the mission ‘Zenit-2 | Tselina-2 22’, on board a Zenit-2 space rocket.

The launch took place on June 10, 2004, 1:28 a.m. from 45/1.

For more information about the launch, click the button.

Launch to space Zenit-2 | Tselina-2 22
Zenit-2 | Tselina-2 22

Agency: N/A

Status: Launch Successful

Launch date: June 10, 2004, 1:28 a.m. UTC

Rocket: Zenit-2

Launch pad: 45/1

Location: Baikonur Cosmodrome, Republic of Kazakhstan

...

Latest news about this satellite

There are no fresh news available about this satellite. Check back as we update our databases every day.


Newsletter sign-up

Weekly statistics, charts and insights to help you stay on top of the space industry.